TimeCET,TemperatureF,Dew PointF,Humidity,Sea Level PressureIn,VisibilityMPH,Wind Direction,Wind SpeedMPH,Gust SpeedMPH,PrecipitationIn,Events,Conditions,WindDirDegrees,DateUTC
1:00 AM,31,29,90,29.74,,West,4.5,,,,,270,2012-12-06 00:00:00
2:59 AM,28.4,28.4,100,29.74,-9999.0,North,-9999.0,-,N/A,,Unknown,0,2012-12-06 01:59:00
5:08 AM,28.4,28.4,100,29.80,1.0,SW,2.3,-,N/A,,Overcast,230,2012-12-06 04:08:00
5:15 AM,28.4,28.4,100,29.77,1.0,SW,2.3,-,N/A,,Overcast,220,2012-12-06 04:15:00
5:45 AM,28.4,28.4,100,29.77,1.1,WSW,2.3,-,N/A,,Overcast,240,2012-12-06 04:45:00
6:00 AM,-9999,-9999,N/A,-9999,1.9,Variable,3.5,-,N/A,,Mostly Cloudy,0,2012-12-06 05:00:00
6:15 AM,28.4,28.4,100,29.77,1.2,WSW,2.3,-,N/A,,Overcast,250,2012-12-06 05:15:00
6:45 AM,28.4,28.4,100,29.77,1.2,SSE,2.3,-,N/A,,Overcast,150,2012-12-06 05:45:00
7:00 AM,28,28,97,29.80,1,SSE,2.2,,,,Mist,150,2012-12-06 06:00:00
7:15 AM,28.4,28.4,100,29.80,1.7,Calm,Calm,-,N/A,,Overcast,0,2012-12-06 06:15:00
7:45 AM,28.4,26.6,93,29.80,2.2,NNE,3.5,-,N/A,,Mostly Cloudy,30,2012-12-06 06:45:00
7:47 AM,28.4,26.6,93,29.83,2.2,North,2.3,-,N/A,,Mostly Cloudy,10,2012-12-06 06:47:00
8:15 AM,28.4,26.6,93,29.80,-9999.0,NW,2.3,-,N/A,,Mostly Cloudy,320,2012-12-06 07:15:00
8:45 AM,28.4,26.6,93,29.80,-9999.0,Calm,Calm,-,N/A,,Mostly Cloudy,0,2012-12-06 07:45:00
9:00 AM,-9999,-9999,N/A,-9999,2.2,Variable,3.5,-,N/A,,Mostly Cloudy,0,2012-12-06 08:00:00
9:15 AM,28.4,26.6,93,29.83,-9999.0,NW,3.5,-,N/A,,Mostly Cloudy,320,2012-12-06 08:15:00
10:15 AM,28.4,26.6,93,29.83,2.8,North,2.3,-,N/A,,Overcast,350,2012-12-06 09:15:00
10:45 AM,30.2,26.6,86,29.83,3.1,West,2.3,-,N/A,,Mostly Cloudy,260,2012-12-06 09:45:00
11:12 AM,30.2,26.6,86,29.86,3.7,NE,1.2,-,N/A,,Overcast,40,2012-12-06 10:12:00
11:15 AM,30.2,26.6,86,29.83,4.3,ESE,1.2,-,N/A,,Overcast,120,2012-12-06 10:15:00
11:45 AM,30.2,26.6,86,29.83,4.3,WNW,3.5,-,N/A,,Mostly Cloudy,290,2012-12-06 10:45:00
12:00 PM,-9999,-9999,N/A,-9999,5.0,Variable,2.3,-,N/A,,Mostly Cloudy,0,2012-12-06 11:00:00
12:15 PM,30.2,26.6,86,29.83,4.3,NW,3.5,-,N/A,,Overcast,320,2012-12-06 11:15:00
12:45 PM,30.2,26.6,86,29.83,3.7,West,3.5,-,N/A,,Overcast,270,2012-12-06 11:45:00
1:00 PM,31,27,79,29.86,4,West,4.5,,,,Partly Cloudy,270,2012-12-06 12:00:00
1:15 PM,30.2,26.6,86,29.83,3.7,WSW,2.3,-,N/A,,Overcast,250,2012-12-06 12:15:00
1:45 PM,32.0,28.4,87,29.83,3.7,WSW,4.6,-,N/A,,Overcast,250,2012-12-06 12:45:00
2:15 PM,30.2,26.6,86,29.86,4.3,WSW,3.5,-,N/A,,Overcast,250,2012-12-06 13:15:00
2:45 PM,30.2,26.6,86,29.86,4.3,West,3.5,-,N/A,,Overcast,270,2012-12-06 13:45:00
3:15 PM,30.2,26.6,86,29.86,3.7,West,2.3,-,N/A,,Overcast,270,2012-12-06 14:15:00
3:44 PM,30.2,26.6,86,29.89,3.1,WNW,2.3,-,N/A,,Overcast,300,2012-12-06 14:44:00
3:45 PM,30.2,26.6,86,29.86,3.7,West,2.3,-,N/A,,Overcast,260,2012-12-06 14:45:00
4:15 PM,30.2,26.6,86,29.86,3.7,Calm,Calm,-,N/A,,Overcast,0,2012-12-06 15:15:00
4:19 PM,30.2,26.6,86,29.89,-9999.0,NNW,3.5,-,N/A,,Unknown,330,2012-12-06 15:19:00
4:45 PM,30.2,26.6,86,29.86,4.3,WNW,4.6,-,N/A,,Overcast,290,2012-12-06 15:45:00
6:00 PM,-9999,-9999,N/A,-9999,-9999.0,North,-9999.0,-,N/A,,Unknown,0,2012-12-06 17:00:00
7:00 PM,30,27,83,29.92,,West,4.5,,,,,270,2012-12-06 18:00:00